Regional Weather Roundup
Issued by NWS Spokane, WA

Home | Current Version | Previous Version | Text Only | Print | Product List | Glossary On
Versions: 1 2 3 4 5 6 7 8 9 10 11 12 13 14 15 16 17 18 19 20 21 22 23 24 25 26 27 28 29 30 31 32 33 34 35 36 37 38 39 40 41 42 43 44 45 46 47 48 49 50
981
NZUS01 KOTX 071810
RWROTX

Eastern Washington/Northern Idaho Roundup
National Weather Service, Spokane WA
1000 AM PST WED DEC 07 2016

Note: "fair" indicated few or no clouds below 12,000 feet with no
significant weather and/or obstructions to visibility.

...Northeast Washington and Northern Idaho Panhandle...

CITY           SKY/WX    TMP DP  RH WIND       PRES   REMARKS
Spokane Intl   PTSUNNY   23  14  68 E6        30.40R WCI  16
Spokane Downto CLOUDY    26  15  63 E6        30.44R WCI  19
Coeur d Alene  CLOUDY    22  12  65 N13       30.42R WCI  10
Deer Park      CLOUDY    24  12  60 NE6       30.43R WCI  17
Sandpoint      MOSUNNY   21   5  49 NE9       30.46R WCI  11
Bonners Ferry  CLOUDY    18   0  45 NE6       30.47R WCI   9

...Southeast Washington and southern Idaho Panhandle...

CITY           SKY/WX    TMP DP  RH WIND       PRES   REMARKS
Walla Walla    CLOUDY    24  16  71 CALM      30.46R
Pullman/Moscow CLOUDY    22  17  81 SE6       30.40R WCI  14
Lewiston       CLOUDY    24  17  74 S3        30.47R
Grangeville    CLOUDY    18  18 100 SE5       30.34R VSB 1/4 WCI  11

...Columbia Basin...

CITY           SKY/WX    TMP DP  RH WIND       PRES   REMARKS
Ephrata        CLOUDY    21   7  54 NW12      30.48R WCI   9
Moses Lake     CLOUDY    23  11  60 N12       30.49R WCI  12
Pasco          CLOUDY    28  24  85 CALM      30.54R
Richland       CLOUDY    29  23  81 CALM      30.54S
Hermiston      MOSUNNY   28  20  71 SE7       30.49S WCI  21
Pendleton      SUNNY     18  13  80 S5        30.43S WCI  11

...East Slopes Cascades...

CITY           SKY/WX    TMP DP  RH WIND       PRES   REMARKS
The Dalles     SUNNY     31  22  69 E7        30.51R WCI  24
Yakima         CLOUDY    31  17  56 CALM      30.47R
Ellensburg     CLOUDY    27  11  51 CALM      30.42R
Stampede Pass  CLOUDY    14  13  95 VRB5      30.24R WCI   6
Wenatchee      CLOUDY    24  12  60 W7        30.49R WCI  16
Omak           SUNNY     20   4  50 N15       30.55R WCI   6
Sunnyside      CLOUDY    27  19  73 S5        30.50R WCI  22

...Southern British Columbia...

CITY           SKY/WX    TMP DP  RH WIND       PRES   REMARKS
Penticton      PTSUNNY   19   3  49 NW10      30.63R WCI   8
Castlegar      CLOUDY    27  12  54 N7        30.47R WCI  19
Cranbrook      PTSUNNY    5  -4  66 SE5       30.47R WCI  -4
Osoyoos          N/A     21   9  58 NW9G17      N/A  WCI  11
Creston          N/A     19   3  49 E7          N/A  WCI  10

...Western Montana...

CITY           SKY/WX    TMP DP  RH WIND       PRES   REMARKS
Kalispell      CLOUDY     8  -3  61 N13       30.46R WCI  -8
Libby            N/A     14   1  57 CALM      30.47R
Missoula       CLOUDY    13   0  56 E14       30.43R WCI  -2

...Neighboring Cities...

CITY           SKY/WX    TMP DP  RH WIND       PRES   REMARKS
Seattle        MOSUNNY   32  26  78 N14       30.41S WCI  22
Portland       MOSUNNY   34  28  79 VRB3      30.38S
Boise          PTSUNNY   20  13  74 SE7       30.37S WCI  11
Great Falls    SUNNY      1  -8  66 W3        30.48R
Calgary        MOSUNNY   -4 -13  65 NW14      30.48R WCI -24



USA.gov is the U.S. government's official web portal to all federal, state and local government web resources and services.